Regional Weather Roundup
Issued by NWS

Home | Current Version | Previous Version | Graphics & Text | Print | Product List | Glossary On
Versions: 1 2 3 4 5 6 7 8 9 10 11 12 13 14 15 16 17 18 19 20 21 22 23 24 25 26 27 28 29 30 31 32 33 34 35 36 37 38 39 40 41 42 43 44 45 46 47 48 49 50
000
ASUS43 KDTX 280410
RWRMI
MICHIGAN HOURLY REGIONAL WEATHER ROUNDUP
NATIONAL WEATHER SERVICE DETROIT/PONTIAC MI
1200 AM EDT TUE MAR 28 2017

NOTE: "FAIR" INDICATES FEW OR NO CLOUDS BELOW 12,000 FEET WITH NO
SIGNIFICANT WEATHER AND/OR OBSTRUCTION TO VISIBILITY.

MIZ047>049-052>055-059>063-066>070-074>076-081>083-280500-
SOUTHEAST LOWER MICHIGAN

CITY           SKY/WX    TMP DP  RH WIND       PRES   REMARKS
ADRIAN         CLOUDY    52  48  86 N8        29.91F
ALMA           CLOUDY    44  42  93 N7        29.95F
ANN ARBOR      CLOUDY    53  48  83 N7        29.90F
BAD AXE        CLOUDY    37  37 100 NE5       29.96S FOG     WCI  34
CARO           CLOUDY    44  44  97 N7        29.93F FOG
DETROIT CITY   CLOUDY    53  47  79 NE7       29.91F
DETROIT        CLOUDY    54  48  80 NE5       29.92R
FLINT          CLOUDY    47  43  86 N5        29.93S
GROSSE ILE     CLOUDY    49  46  91 CALM      29.90S
HILLSDALE      CLOUDY    50  46  87 N3        29.90F
HOWELL         CLOUDY    48  43  81 N3        29.92F

CITY           SKY/WX    TMP DP  RH WIND       PRES   REMARKS
JACKSON        CLOUDY    50  44  80 N7        29.92S
LAMBERTVILLE   CLOUDY    51  49  90 CALM      29.89F
LANSING        CLOUDY    47  40  76 N3        29.94S
LAPEER         CLOUDY    48  44  86 NE5       29.93F
MASON          CLOUDY    48  44  88 N5        29.93S
MONROE         CLOUDY    53  51  94 N3        29.89S
MT. CLEMENS    CLOUDY    50  50 100 E7        29.91R
PONTIAC        CLOUDY    50  45  83 N7        29.91S
PORT HOPE        N/A     36  35  96 CALM      29.95F
PORT HURON     CLOUDY    41  39  93 N9        29.94S
TRI CITIES     CLOUDY    40  40 100 NE9       29.96S FOG     WCI  34
MIDLAND        CLOUDY    43  38  81 N5        29.95S
TROY           CLOUDY    52  46  79 N6        29.93S
SAGINAW HB     CLOUDY    41  37  87 N7        29.95S
$$
MIZ043>046-050>051-056>058-064>065-071>073-077>080-280500-
SOUTHWEST LOWER MICHIGAN

CITY           SKY/WX    TMP DP  RH WIND       PRES   REMARKS
BATTLE CREEK   CLOUDY    47  43  86 CALM      29.93S
BENTON HARBOR  CLOUDY    39  35  86 CALM      29.95S
BIG RAPIDS     CLOUDY    39  38  93 N3        29.95S
COLDWATER      CLOUDY    50  48  93 N5        29.91F
FREMONT        CLOUDY    39  37  92 CALM      29.96F
HOLLAND        CLOUDY    43  37  79 N5        29.96S
GRAND RAPIDS   CLOUDY    45  42  89 N5        29.94S
IONIA          CLOUDY    44  39  84 N5        29.93S
KALAMAZOO      CLOUDY    46  40  79 N6        29.94S
LUDINGTON      MOCLDY    35  34  98 CALM      29.99R
MARSHALL       CLOUDY    48  46  92 CALM      29.92S
MOUNT PLEASANT CLOUDY    42  39  90 N6        29.96R
MUSKEGON       CLOUDY    39  35  86 N6        29.97S WCI  35
SOUTH HAVEN    CLOUDY    37  36  94 CALM      29.95R
$$
MIZ016>042-280500-
NORTHERN LOWER MICHIGAN

CITY           SKY/WX    TMP DP  RH WIND       PRES   REMARKS
ALPENA         CLOUDY    38  37  97 NW6       29.97R WCI  33
BEAVER ISLAND  CLOUDY    34  34  97 CALM      30.01R
BELLAIRE       CLOUDY    36  34  92 CALM      29.99S
CADILLAC       CLOUDY    35  34  96 N5        29.95S WCI  31
CHARLEVOIX     CLOUDY    35  35 100 N5        30.02S WCI  31
FRANKFORT      CLOUDY    37  35  92 CALM      30.00R FOG
GAYLORD        CLOUDY    36  33  89 CALM      29.95S FOG
GRAYLING       CLOUDY    37  34  87 CALM      29.97R
HARBOR SPRINGS CLOUDY    35  35 100 CALM      29.99S
HOUGHTON LAKE  CLOUDY    37  34  89 NW3       29.96S
MANISTEE       CLOUDY    37  35  92 N5        29.99R WCI  33
OSCODA         CLOUDY    38  37  98 CALM      29.96S
PELLSTON       CLOUDY    36  33  89 NW5       29.99S WCI  32
ROGERS CITY    CLOUDY    37  34  90 NW6       29.99R FOG     WCI  32
TRAVERSE CITY  CLOUDY    38  35  89 NW3       29.99R
$$
MIZ007>008-015-280500-
EASTERN UPPER MICHIGAN

CITY           SKY/WX    TMP DP  RH WIND       PRES   REMARKS
KINROSS        CLOUDY    34  32  92 NW7       29.99R WCI  28
MACKINAC ISLAN CLOUDY    34  34 100 NW5       29.98S WCI  30
NEWBERRY       CLOUDY    31  31  97 NW5       29.99R FOG     WCI  27
S. S. MARIE    CLOUDY    35  32  88 W6        29.98R WCI  30
MUNISING         N/A     33  33 100 CALM      30.01S
$$
MIZ004>006-011>014-085-280500-
CENTRAL UPPER MICHIGAN

CITY           SKY/WX    TMP DP  RH WIND       PRES   REMARKS
MANISTIQUE     CLOUDY    30  30 100 N8        30.01S WCI  23
ESCANABA       PTCLDY    30  29  96 W3        30.03R
MENOMINEE        N/A    N/A N/A N/A MISG        N/A
SAWYER-GWINN   CLOUDY    32  31  97 CALM      30.01R
$$
MIZ001>003-009>011-084-280500-
WESTERN UPPER MICHIGAN

CITY           SKY/WX    TMP DP  RH WIND       PRES   REMARKS
IRON MOUNTAIN  FOG       30  28  92 CALM      30.00R VSB 3/4
HOUGHTON       CLEAR     34  29  82 NW8       30.01R WCI  27
COPPER HARBOR    N/A     30  29  96 CALM      30.02R
IRONWOOD       CLEAR     27  24  89 CALM      30.04R
$$

ABBREVIATIONS USED IN REMARKS
   TC - TEMPERATURE IN CELSIUS
  WCI - WIND CHILL INDEX
   HX - HEAT INDEX
  VSB - VISIBILITY





USA.gov is the U.S. government's official web portal to all federal, state and local government web resources and services.